sat.trackr.live / text

‹ back to catalog

GEESAT-2 01

NORAD 58905 · 2024-023A

PAYLOAD ACTIVE UNKNOWN

§ Identity

Operator
Country
PRC
Launch date
2024-02-02
Launch site
XICLF
Launch vehicle
Mass (kg)
RCS (m²)

External: N2YO · Heavens-Above · Gunter

§ Orbital elements

Epoch: 2026-09-22T16:30:10.205568Z

Period
97.07 min
Inclination
49.9944°
Eccentricity
0.0004887
Mean motion
14.83420787 rev/d
Perigee alt
615.1 km
Apogee alt
622.0 km
Semi-major
6,996.7 km
B*
1.4480e-4
RAAN
262.4151°
Arg perigee
35.1186°
Mean anomaly
325.0074°
Rev number
14,338

§ Raw data

GEESAT-2 011 58905U 24023A   26265.68761812  .00000975  00000+0  14480-3 0  99982 58905  49.9944 262.4151 0004887  35.1186 325.0074 14.83420787143384

JSON: /api/v1/satellites/58905 · /tle

For live sub-satellite position, see the globe view (requires WebGL).

§ Visibility from observer

Set your observer location to see the next 7 days of passes ≥ 10°. The values pass through the URL so the page stays shareable.

No JS? Fill the form by hand. The geolocation button needs JavaScript.